Location: Perryvale
(54.4667°N, 113.3833°W)
Time: 23:26:51
(UTC+00:00)

Vanguard 1 Rocket - Pass Details

Date: 22 May 2024
Orbit: 649 x 4221 km, 34.3° (Epoch: 13 June)

Event Time Altitude Azimuth Distance (km) Brightness Sun altitude
Rises 18:39:13 0° 244° (WSW) 7,508 12.1 54.8°
Reaches altitude 10° 18:45:56 10° 235° (SW) 5,892 11.8 55.1°
Maximum altitude 18:58:10 27° 187° (S) 3,334 11.4 55.6°
Drops below altitude 10° 19:05:44 10° 134° (SE) 3,549 11.0 55.8°
Sets 19:08:36 0° 121° (ESE) 4,153 11.1 55.9°
